| time (UTC) | temp F | wind direction | speed MPH | gust MPH | rain 1hr in | rain 24hr in | rain mn in | humidity % | barometer mb |
| 20260506214517 | 59 | 0.0 | 3.0 | 0.00 | 0.35 | 0.27 | 60 | 1007.8 | |
| 20260506213017 | 59 | 0.0 | 3.0 | 0.00 | 0.35 | 0.27 | 56 | 1007.5 | |
| 20260506211519 | 59 | 0.0 | 6.0 | 0.00 | 0.35 | 0.27 | 54 | 1007.4 | |
| 20260506210018 | 59 | 45 | 1.0 | 7.0 | 0.00 | 0.36 | 0.27 | 51 | 1007.0 |
| 20260506204517 | 60 | 0.0 | 4.0 | 0.00 | 0.37 | 0.27 | 58 | 1007.1 | |
| 20260506203037 | 59 | 0.0 | 3.0 | 0.00 | 0.37 | 0.27 | 53 | 1007.1 | |
| 20260506201517 | 59 | 0.0 | 1.0 | 0.00 | 0.37 | 0.27 | 55 | 1007.4 | |
| 20260506200019 | 59 | 0.0 | 3.0 | 0.00 | 0.39 | 0.27 | 52 | 1007.3 | |
| 20260506194539 | 58 | 0.0 | 3.0 | 0.00 | 0.39 | 0.27 | 56 | 1007.5 | |
| 20260506193015 | 59 | 0.0 | 5.0 | 0.00 | 0.42 | 0.27 | 57 | 1007.2 | |
| 20260506191515 | 59 | 0.0 | 5.0 | 0.00 | 0.45 | 0.27 | 54 | 1007.0 | |
| 20260506190015 | 60 | 45 | 1.0 | 11.0 | 0.00 | 0.47 | 0.27 | 54 | 1006.8 |
| 20260506184515 | 60 | 45 | 1.0 | 7.0 | 0.00 | 0.49 | 0.27 | 52 | 1006.8 |
| 20260506183015 | 61 | 45 | 1.0 | 7.0 | 0.00 | 0.49 | 0.27 | 52 | 1006.7 |
| 20260506181517 | 61 | 45 | 1.0 | 7.0 | 0.00 | 0.49 | 0.27 | 49 | 1006.6 |
| 20260506180022 | 60 | 45 | 1.0 | 7.0 | 0.00 | 0.49 | 0.27 | 52 | 1006.8 |
| 20260506174517 | 60 | 45 | 1.0 | 6.0 | 0.00 | 0.49 | 0.27 | 56 | 1007.0 |
| 20260506173015 | 60 | 45 | 1.0 | 9.0 | 0.00 | 0.49 | 0.27 | 55 | 1007.3 |
| 20260506171535 | 59 | 0.0 | 6.0 | 0.00 | 0.49 | 0.27 | 56 | 1007.3 | |
| 20260506170015 | 58 | 0.0 | 7.0 | 0.00 | 0.49 | 0.27 | 61 | 1007.4 | |
| 20260506164515 | 57 | 0.0 | 5.0 | 0.00 | 0.49 | 0.27 | 61 | 1007.6 | |
| 20260506163016 | 57 | 45 | 1.0 | 7.0 | 0.00 | 0.49 | 0.27 | 60 | 1007.5 |
| 20260506161516 | 57 | 68 | 1.0 | 7.0 | 0.00 | 0.49 | 0.27 | 60 | 1007.6 |
| 20260506160036 | 56 | 45 | 1.0 | 8.0 | 0.00 | 0.49 | 0.27 | 62 | 1007.4 |
| 20260506154516 | 55 | 23 | 1.0 | 8.0 | 0.00 | 0.49 | 0.27 | 63 | 1007.2 |
| 20260506153017 | 53 | 45 | 1.0 | 8.0 | 0.00 | 0.49 | 0.27 | 69 | 1006.9 |
| 20260506151516 | 53 | 45 | 1.0 | 7.0 | 0.00 | 0.49 | 0.27 | 71 | 1007.5 |
| 20260506150015 | 52 | 45 | 1.0 | 6.0 | 0.00 | 0.49 | 0.27 | 74 | 1007.1 |
| 20260506144515 | 50 | 45 | 1.0 | 8.0 | 0.00 | 0.49 | 0.27 | 78 | 1006.8 |
| 20260506143036 | 50 | 45 | 1.0 | 8.0 | 0.00 | 0.49 | 0.27 | 83 | 1006.1 |
| 20260506141556 | 49 | 0.0 | 6.0 | 0.00 | 0.49 | 0.27 | 87 | 1006.0 | |
| 20260506140017 | 49 | 45 | 1.0 | 7.0 | 0.00 | 0.49 | 0.27 | 89 | 1006.1 |
| 20260506134516 | 48 | 0.0 | 7.0 | 0.00 | 0.49 | 0.27 | 93 | 1006.1 | |
| 20260506133016 | 48 | 45 | 1.0 | 7.0 | 0.00 | 0.49 | 0.27 | 96 | 1005.9 |
| 20260506131537 | 48 | 45 | 1.0 | 7.0 | 0.00 | 0.49 | 0.27 | 98 | 1005.9 |
| 20260506130016 | 47 | 0.0 | 5.0 | 0.00 | 0.49 | 0.27 | 100 | 1005.3 | |
| 20260506124516 | 46 | 0.0 | 2.0 | 0.00 | 0.49 | 0.27 | 100 | 1005.7 | |
| 20260506123016 | 46 | 0.0 | 2.0 | 0.00 | 0.49 | 0.27 | 100 | 1005.3 | |
| 20260506121516 | 46 | 0.0 | 2.0 | 0.00 | 0.49 | 0.27 | 100 | 1005.4 | |
| 20260506120016 | 46 | 0.0 | 2.0 | 0.00 | 0.49 | 0.27 | 100 | 1005.0 | |
| 20260506114517 | 45 | 0.0 | 1.0 | 0.00 | 0.49 | 0.27 | 100 | 1004.7 | |
| 20260506113017 | 45 | 0.0 | 1.0 | 0.00 | 0.49 | 0.27 | 100 | 1004.0 | |
| 20260506111516 | 45 | 0.0 | 2.0 | 0.00 | 0.49 | 0.27 | 100 | 1004.2 | |
| 20260506110016 | 45 | 0.0 | 5.0 | 0.00 | 0.49 | 0.27 | 100 | 1003.7 | |
| 20260506104516 | 45 | 0.0 | 1.0 | 0.00 | 0.49 | 0.27 | 100 | 1003.8 | |
| 20260506103016 | 45 | 0.0 | 1.0 | 0.00 | 0.49 | 0.27 | 100 | 1003.1 | |
| 20260506101536 | 45 | 0.0 | 0.0 | 0.00 | 0.49 | 0.27 | 100 | 1003.7 | |
| 20260506100017 | 45 | 0.0 | 2.0 | 0.00 | 0.53 | 0.27 | 100 | 1002.9 | |
| 20260506094516 | 44 | 0.0 | 3.0 | 0.00 | 0.56 | 0.27 | 100 | 1002.8 | |
| 20260506093016 | 45 | 0.0 | 2.0 | 0.00 | 0.57 | 0.27 | 100 | 1002.9 | |
| 20260506091516 | 45 | 0.0 | 5.0 | 0.00 | 0.58 | 0.27 | 100 | 1003.0 | |
| 20260506090017 | 45 | 0.0 | 7.0 | 0.00 | 0.58 | 0.27 | 100 | 1002.4 | |
| 20260506084516 | 45 | 45 | 1.0 | 8.0 | 0.00 | 0.58 | 0.27 | 100 | 1002.1 |
| 20260506083016 | 45 | 45 | 1.0 | 8.0 | 0.00 | 0.58 | 0.27 | 100 | 1002.5 |
| 20260506081517 | 45 | 45 | 1.0 | 5.0 | 0.03 | 0.58 | 0.27 | 100 | 1002.2 |
| 20260506073056 | 48 | 23 | 1.0 | 10.0 | 0.08 | 0.58 | 0.27 | 100 | 1001.7 |
| 20260506071516 | 48 | 45 | 1.0 | 7.0 | 0.06 | 0.55 | 0.24 | 100 | 1002.0 |
| 20260506061516 | 49 | 45 | 1.0 | 7.0 | 0.10 | 0.49 | 0.18 | 100 | 1001.3 |
| 20260506044516 | 53 | 45 | 1.0 | 7.0 | 0.04 | 0.35 | 0.04 | 100 | 1000.7 |
| 20260506043016 | 54 | 45 | 1.0 | 6.0 | 0.04 | 0.35 | 0.04 | 100 | 1000.6 |
| 20260506041537 | 56 | 45 | 1.0 | 8.0 | 0.04 | 0.35 | 0.04 | 100 | 1000.4 |
| 20260506040016 | 60 | 0.0 | 5.0 | 0.00 | 0.31 | 0.00 | 100 | 1000.5 | |
| 20260506034559 | 60 | 0.0 | 0.0 | 0.00 | 0.31 | 0.31 | 100 | 1000.0 | |
| 20260506033040 | 60 | 0.0 | 2.0 | 0.00 | 0.31 | 0.31 | 100 | 1000.2 | |
| 20260506031517 | 60 | 0.0 | 2.0 | 0.00 | 0.31 | 0.31 | 100 | 1000.2 | |
| 20260506030017 | 60 | 0.0 | 1.0 | 0.00 | 0.31 | 0.31 | 100 | 1000.5 | |
| 20260506024517 | 60 | 0.0 | 0.0 | 0.00 | 0.31 | 0.31 | 100 | 1000.8 | |
| 20260506023017 | 60 | 0.0 | 0.0 | 0.01 | 0.31 | 0.31 | 100 | 1000.9 | |
| 20260506021519 | 60 | 0.0 | 0.0 | 0.01 | 0.31 | 0.31 | 100 | 1001.2 | |
| 20260506020019 | 60 | 0.0 | 0.0 | 0.02 | 0.31 | 0.31 | 100 | 1001.3 | |
| 20260506014517 | 60 | 0.0 | 0.0 | 0.04 | 0.31 | 0.31 | 100 | 1001.1 | |
| 20260506013017 | 60 | 0.0 | 0.0 | 0.05 | 0.30 | 0.30 | 100 | 1001.1 | |
| 20260506011519 | 60 | 0.0 | 1.0 | 0.05 | 0.30 | 0.30 | 100 | 1000.9 | |
| 20260506010039 | 61 | 0.0 | 0.0 | 0.04 | 0.29 | 0.29 | 100 | 1001.0 | |
| 20260506004517 | 61 | 0.0 | 0.0 | 0.02 | 0.27 | 0.27 | 100 | 1001.2 | |
| 20260506003017 | 61 | 0.0 | 0.0 | 0.01 | 0.25 | 0.25 | 100 | 1000.9 | |
| 20260506001517 | 61 | 0.0 | 0.0 | 0.02 | 0.25 | 0.25 | 100 | 1000.6 | |
| 20260506000017 | 61 | 0.0 | 0.0 | 0.02 | 0.25 | 0.25 | 100 | 1000.5 | |
| 20260505234517 | 61 | 0.0 | 1.0 | 0.02 | 0.25 | 0.25 | 100 | 1000.4 | |
| 20260505233057 | 62 | 0.0 | 2.0 | 0.01 | 0.24 | 0.24 | 100 | 1000.7 | |
| 20260505231515 | 62 | 0.0 | 3.0 | 0.00 | 0.23 | 0.23 | 100 | 1001.2 | |
| 20260505230016 | 62 | 0.0 | 2.0 | 0.00 | 0.23 | 0.23 | 100 | 1001.1 | |
| 20260505224515 | 62 | 0.0 | 7.0 | 0.00 | 0.23 | 0.23 | 100 | 1001.1 | |
| 20260505223017 | 62 | 180 | 1.0 | 7.0 | 0.00 | 0.23 | 0.23 | 100 | 1001.2 |
| 20260505221536 | 62 | 180 | 1.0 | 5.0 | 0.00 | 0.23 | 0.23 | 100 | 1001.5 |
| 20260505220015 | 62 | 0.0 | 3.0 | 0.01 | 0.23 | 0.23 | 100 | 1001.6 |